User: anonymous
Location: Unspecified
(0.0000°N, 0.0000°E)
Time: 09:43:47
(UTC+00:00)
Language:

Explorer 11/Cluster Stage 4 - Orbit

View from above orbital plane
View from above orbital plane
View from above satellite
View from above satellite

Ground track
Ground track

The orbit data is extracted from the following two-line orbital elements,

1 00107U 61013A   14292.46404270  .00008032  00000-0  10972-2 0  1631
2 00107 028.7930 324.8628 0560552 288.3020 232.7096 14.05486193674061
Epoch (UTC): 19 October 2014 11:08:13
Eccentricity: 0.0560552
inclination: 28.7930°
perigee height: 468 km
apogee height: 1281 km
right ascension of ascending node: 324.8628°
argument of perigee: 288.3020°
revolutions per day: 14.05486193
mean anomaly at epoch: 232.7096°
orbit number at epoch: 67406

The dashed part of the orbit path shows where the satellite is in the earth's shadow,  

DLR